Regional Weather Roundup
Issued by NWS

Home | Current Version | Previous Version | Text Only | Print | Product List | Glossary Off
Versions: 1 2 3 4 5 6 7 8 9 10 11 12 13 14 15 16 17 18 19 20 21 22 23 24 25 26 27 28 29 30 31 32 33 34 35 36 37 38 39 40 41 42 43 44 45 46 47 48

000
ASUS45 KBOU 271207
RWRCO

WEATHER ROUNDUP FOR COLORADO
NATIONAL WEATHER SERVICE DENVER/BOULDER CO
600 AM MDT FRI MAR 27 2015

NOTE: "FAIR" INDICATES FEW OR NO CLOUDS BELOW 12000 FEET WITH NO
SIGNIFICANT WEATHER AND/OR OBSTRUCTIONS TO VISIBILITY.

COZ001>005-013-030-031-271300-
...NORTHWEST COLORADO...

CITY           SKY/WX    TMP DP  RH WIND       PRES   REMARKS
CRAIG          CLEAR     28  25  88 E3        30.33F
HAYDEN         CLEAR     32  25  74 E3        30.33S
MEEKER         CLEAR     29  24  82 NE3       30.35S
MOUNT WERNER   NOT AVBL
STEAMBOAT SPGS NOT AVBL
WALDEN         MOCLDY    30  25  80 S6        30.31R WCI  24
$$

COZ006>008-011-271300-
...WEST CENTRAL VALLEYS...

CITY           SKY/WX    TMP DP  RH WIND       PRES   REMARKS
GRAND JUNCTION CLEAR     35  21  56 SE6       30.29S WCI  30
MONTROSE       CLEAR     33  23  66 S9        30.35R WCI  25
EAGLE          PTCLDY    30  27  86 CALM      30.37R
RIFLE          CLEAR     30  22  72 S3        30.35R
DELTA          CLEAR     34  23  64 NE6       30.34S WCI  29
NUCLA          CLEAR     34  21  60 E9        30.37S WCI  26
$$

COZ017>023-064>068-271300-
...SOUTHWEST COLORADO...

CITY           SKY/WX    TMP DP  RH WIND       PRES   REMARKS
DURANGO        PTCLDY    28  20  71 N5        30.31R WCI  23
CORTEZ         CLEAR     29  18  63 E8        30.33R WCI  21
PAGOSA SPRINGS PTCLDY    28  20  73 CALM      30.34S
TELLURIDE      NOT AVBL
WOLF CREEK PAS PTCLDY    28  14  54 NW7       30.48R WCI  21
$$

COZ009-010-012-014-032>034-037-058>063-271300-
...CENTRAL COLORADO...

CITY           SKY/WX    TMP DP  RH WIND       PRES   REMARKS
ASPEN          CLEAR     30  22  72 SW5       30.36R WCI  25
BUENA VISTA    CLEAR     36  22  56 NW12      30.30R
COPPER MTN     NOT AVBL
BERTHOUD PASS  CLOUDY    19  12  73 NW30      30.35F WCI   0
COTTONWOOD PAS CLEAR     37  21  52 NW9G23    30.33S
GUNNISON       CLEAR     25  18  74 CALM      30.40R
KREMMLING      CLEAR     30  25  80 CALM      30.36R
LEADVILLE      CLEAR     25  17  72 NE8       30.36R WCI  16
SALIDA         CLEAR     38  22  52 W5        30.37R
SUNLIGHT       PTCLDY    30  27  86 W6          N/A  WCI  24
WILKERSON PASS PTCLDY    30  19  64 W8        30.38S WCI  23
$$

COZ069>075-271300-
...SAN LUIS VALLEY/SANGRE DE CRISTO MOUNTAINS...

CITY           SKY/WX    TMP DP  RH WIND       PRES   REMARKS
ALAMOSA        PTCLDY    27  18  69 SW5       30.31S WCI  22
LA VETA PASS   PTCLDY    30  18  59 S13       30.34R WCI  20
SAGUACHE       CLEAR     36  19  51 N7        30.33R
$$

COZ035-036-038>040-271300-
...NORTHERN COLORADO FRONT RANGE...

CITY           SKY/WX    TMP DP  RH WIND       PRES   REMARKS
DENVER INTL AP PTCLDY    40  30  67 SW9       30.16S
DMNS CITY PARK   N/A     41  30  65 S5G10     30.17S
AURORA         PTCLDY    39  31  73 S8        30.17S
FRONT RANGE AP PTCLDY    43  32  65 SW9       30.17
ERIE MUNI ARPT NOT AVBL
BOULDER MUN AP NOT AVBL
CENTENNIAL     PTCLDY    39  28  64 S7        30.17F
BROOMFIELD     CLEAR     41  28  60 SW3       30.17S
FORT COLLINS   PTCLDY    43  28  56 CALM      30.16S
LONGMONT       NOT AVBL
$$

COZ041-046-047-076>085-087-088-271300-
...PIKES PEAK/PALMER DIVIDE AND SOUTHERN FOOTHILLS...

CITY           SKY/WX    TMP DP  RH WIND       PRES   REMARKS
COLO. SPRINGS  CLEAR     30  23  75 N5        30.22R WCI  25
A. F. ACADEMY  CLEAR     29  24  82 N7        30.21R WCI  21
ELLICOTT       CLEAR    N/A N/A N/A CALM      30.20R
FALCON         NOT AVBL
FORT CARSON    CLEAR     32  24  71 NW7       30.20R WCI  26
LIMON          PTCLDY    32  27  81 CALM      30.16S
MONUMENT HILL  CLEAR     34  27  75 W6        30.21R WCI  29
TRINIDAD       CLEAR     37  24  59 W10       30.19R
$$

COZ042>045-048>051-090-091-271300-
...NORTHEAST COLORADO...

CITY           SKY/WX    TMP DP  RH WIND       PRES   REMARKS
GREELEY ARPT   MOCLDY    41  28  60 W7        30.13S
AKRON          PTCLDY    30  28  92 SE7       30.17R WCI  23
BURLINGTON     CLOUDY    32  28  85 E6        30.19R WCI  26
WRAY           LGT RAIN  34  31  87 SE5       30.20S WCI  30
STERLING       NOT AVBL
HOLYOKE        NOT AVBL
FORT MORGAN    CLOUDY    36  32  84 NE8       30.16S
$$

COZ086-089-092>099-271300-
...SOUTHEAST COLORADO...

CITY           SKY/WX    TMP DP  RH WIND       PRES   REMARKS
PUEBLO         CLEAR     35  28  75 N9        30.19R WCI  28
LA JUNTA       CLEAR     33  25  72 NW5       30.17R WCI  29
LAMAR          MOCLDY    32  28  85 E6        30.17R WCI  26
SPRINGFIELD      N/A     31  26  82 SW7       30.16F WCI  24
$$



USA.gov is the U.S. government's official web portal to all federal, state and local government web resources and services.